Regional Weather Roundup
Issued by NWS Upton, NY

Current Version | Previous Version | Text Only | Print | Product List | Glossary Off
Versions: 1 2 3 4 5 6 7 8 9 10 11 12 13 14 15 16 17 18 19 20 21 22 23 24 25 26 27 28 29 30 31
000 ASUS41 KOKX 250204 RWROKX REGIONAL WEATHER ROUNDUP NATIONAL WEATHER SERVICE NEW YORK NY 1000 PM EDT WED AUG 24 2016 NOTE: "FAIR" INDICATES FEW OR NO CLOUDS BELOW 12,000 FEET WITH NO SIGNIFICANT WEATHER AND/OR OBSTRUCTIONS TO VISIBILITY. NYZ071-072-176-178-NJZ106-104-250300- NEW YORK CITY METRO AREA CITY SKY/WX TMP DP RH WIND PRES REMARKS Central Park N/A 77 64 65 MISG N/A LaGuardia APRT PTCLDY 78 65 63 S10 30.16F Kennedy INTL PTCLDY 76 71 85 S20G25 30.18F Newark/Liberty PTCLDY 76 64 66 S10 30.17R Bronx Bot Gard N/A 73 63 68 SW2 30.18F Wall St Helipt CLEAR 77 66 69 SW8 30.18S Teterboro CLEAR 77 63 61 S9 30.16R $$ NYZ177-179-078>081-250300- LONG ISLAND NEW YORK CITY SKY/WX TMP DP RH WIND PRES REMARKS Farmingdale CLEAR 75 65 70 S9 30.19S MacArthur/ISP PTCLDY 74 64 71 S9 30.19S Shirley NOT AVBL Riverhead NOT AVBL Westhampton CLEAR 70 65 84 S5 30.22S Southampton N/A 72 68 88 SW7 30.17S Bridgehampton N/A 68 64 88 CALM 30.19S East Hampton FAIR 70 65 86 SW5 30.20S Montauk N/A 72 67 84 S6 30.21S $$ NYZ052-065-067-250300- HUDSON VALLEY CITY SKY/WX TMP DP RH WIND PRES REMARKS White Plains CLEAR 72 63 73 S6 30.18S Newburgh CLEAR 75 64 69 SW6 30.17S Montgomery CLEAR 67 63 87 CALM 30.16S Poughkeepsie CLEAR 71 64 78 CALM 30.15R Albany PTCLDY 75 61 61 S8 30.12S $$ NJZ001-105-106-008-010-013-015-019>022-104-250300- NEW JERSEY CITY SKY/WX TMP DP RH WIND PRES REMARKS Newark/Liberty PTCLDY 76 64 66 S10 30.17R Teterboro CLEAR 77 63 61 S9 30.16R Caldwell CLEAR 76 61 59 CALM 30.17S Morristown PTCLDY 64 63 94 CALM 30.18R Somerville CLEAR 67 64 90 CALM 30.16R Linden FAIR 76 61 59 S7 30.19S Sussex CLEAR 66 65 96 CALM 30.17F Abdover N/A 65 63 93 CALM 30.19S Trenton CLEAR 74 61 63 SW3 30.19R Millville CLEAR 71 65 81 CALM 30.21S Atlantic City CLEAR 72 62 71 S7 30.21S Wrightstown CLEAR 69 62 77 S9 30.18R Toms River CLEAR 70 61 73 S6 30.21S Belmar CLEAR 72 61 68 S6 30.21S $$ PAZ047>061-062-071-250300- EASTERN PENNSYLVANIA CITY SKY/WX TMP DP RH WIND PRES REMARKS Philadelphia PTCLDY 75 61 61 S12 30.20R Allentown CLEAR 75 61 61 SW8 30.18R Scranton CLEAR 75 62 64 VRB5 30.18R $$ CTZ002-004>006-009-010-012-RIZ004-006-007-MAZ004-011-015-250300- SOUTHERN NEW ENGLAND IN CT CITY SKY/WX TMP DP RH WIND PRES REMARKS Bradley INTL CLEAR 73 60 63 S8 30.17S Hartford CLEAR 76 63 64 S7 30.16S Danbury CLEAR 71 61 70 S9 30.19S Wtrbury/Oxford N/A 70 61 73 S5 30.21F Bridgeport CLEAR 77 65 66 SW12 30.18S Meriden CLEAR 72 63 73 S5 30.18S New Haven CLEAR 74 64 71 S8 30.19S Chester FAIR 72 64 78 SW7 30.20S Groton CLEAR 73 67 81 SW7 30.19S Wilimantic CLEAR 71 63 75 S3 30.19S IN RI CITY SKY/WX TMP DP RH WIND PRES REMARKS Providence PTCLDY 71 62 73 SW7 30.19S Block Island CLEAR 72 65 78 SW12 30.21S Westerly CLEAR 73 64 73 SW8 30.21R IN MA CITY SKY/WX TMP DP RH WIND PRES REMARKS Boston CLEAR 76 61 59 SW10 30.16S Worcester CLEAR 69 58 67 SW13 30.20S Westfield CLEAR 70 62 76 S5 30.16S Provincetown PTCLDY 69 66 90 S10 30.18F Nantucket CLEAR 70 67 90 SW9 30.21S $$ ANZ330-335-338-340-345-350-353-355-250300- COASTAL MARINE OBSERVATIONS STATION/POSITION TIME SKY/WX TEMP WIND PRES VSBY WAVE AIR SEA DIR/SP/G HT/PER (UTC) (F) (DEG/KT/KT) (MB) (MI) (FT/S) NY HARB ENTRANCE 0050 76 77 200/ 19/ 21 1021.9 3/ 4 20S FIRE ISLAND 0050 76 76 210/ 16/ 17 1022.4 3/11 GREAT SOUTH BAY 0100 76 79 210/ 12/ 16 N/A 23 SSW MONTAUK P 0050 76 74 210/ 12/ 14 1023.3 2/11 15 E BARNEGAT LI 0100 76 N/A 2/11 HUDSON CANYON 0050 76 78 1023.7 2/11 KINGS POINT 0100 76 77 1021.6 EXECUTION ROCKS 0100 76 180/ 10/ 14 N/A CENTRAL LI SOUND 0100 75 75 200/ 14/ 17 N/A 2/ 3 EASTERN LI SOUND 0100 72 69 210/ 8/ 10 N/A ROBBINS REEF 0100 77 180/ 16/ 19 1020.8 $$ >>>>>>>>>>>>>>>>>>>>>>>>>>>> KEY <<<<<<<<<<<<<<<<<<<<<<<<<<< > < > SKY/WX - Sky Condition/Present Weather < > TMP - Temperature in Fahrenheit < > DP - Dew Point in Fahrenheit < > RH - Relative Humidity in Percent < > WIND - Direction (from) and Speed in MPH < > PRES - Mean Sea Level Pressure (inches of Hg) < > WCI - Wind Chill Index < > VSB - VISIBILITY IN MILES < > HX - HEAT INDEX < > TC - TEMPERATURE IN CELSIUS < > VRB - VARIABLE WIND DIRECTION < > < >>>>>>>>>>>>>>>>>>>>>>>>>>>> KEY <<<<<<<<<<<<<<<<<<<<<<<<<<<

USA.gov is the U.S. government's official web portal to all federal, state and local government web resources and services.